Time,TemperatureF,DewpointF,PressureIn,WindDirection,WindDirectionDegrees,WindSpeedMPH,WindSpeedGustMPH,Humidity,HourlyPrecipIn,Conditions,Clouds,dailyrainin,SoftwareType,DateUTC
2014-02-03 07:45:00,32.9,28.3,29.90,NE,36,1.0,3.0,83,0.00,,,0.00,Wunderground v.1.15,2014-02-03 12:45:00,
2014-02-03 07:50:00,32.9,28.3,29.90,NE,36,0.0,3.0,83,0.00,,,0.00,Wunderground v.1.15,2014-02-03 12:50:00,
2014-02-03 07:55:00,32.9,28.0,29.90,ENE,71,1.0,3.0,82,0.00,,,0.00,Wunderground v.1.15,2014-02-03 12:55:00,
2014-02-03 08:00:00,33.0,28.1,29.90,ENE,66,1.0,2.0,82,0.00,,,0.00,Wunderground v.1.15,2014-02-03 13:00:00,
2014-02-03 08:05:00,33.0,28.1,29.90,ENE,57,1.0,2.0,82,0.00,,,0.00,Wunderground v.1.15,2014-02-03 13:05:00,
2014-02-03 09:00:00,32.7,28.1,29.91,ENE,69,2.0,2.0,83,0.00,,,0.00,Wunderground v.1.15,2014-02-03 14:00:00,
2014-02-03 09:10:00,32.2,28.5,29.92,NNE,26,2.0,4.0,86,0.00,,,0.00,Wunderground v.1.15,2014-02-03 14:10:00,
2014-02-03 09:15:00,31.9,28.5,29.92,East,82,3.0,4.0,87,0.00,,,0.00,Wunderground v.1.15,2014-02-03 14:15:00,
2014-02-03 09:20:00,31.5,28.6,29.92,ENE,72,3.0,4.0,89,0.00,,,0.00,Wunderground v.1.15,2014-02-03 14:20:00,
2014-02-03 09:30:00,30.8,28.2,29.93,East,84,3.0,3.0,90,0.00,,,0.00,Wunderground v.1.15,2014-02-03 14:30:00,
2014-02-03 09:35:00,30.7,28.4,29.93,NE,51,3.0,3.0,91,0.00,,,0.00,Wunderground v.1.15,2014-02-03 14:35:00,
2014-02-03 09:40:00,30.3,28.0,29.93,ENE,60,3.0,3.0,91,0.00,,,0.00,Wunderground v.1.15,2014-02-03 14:40:00,
2014-02-03 09:50:00,29.6,27.0,29.94,ENE,77,3.0,4.0,90,0.00,,,0.00,Wunderground v.1.15,2014-02-03 14:50:00,
2014-02-03 09:55:00,29.3,26.7,29.94,ENE,76,3.0,4.0,90,0.00,,,0.00,Wunderground v.1.15,2014-02-03 14:55:00,
2014-02-03 10:00:00,29.0,26.7,29.95,ENE,76,3.0,3.0,91,0.00,,,0.00,Wunderground v.1.15,2014-02-03 15:00:00,
2014-02-03 10:10:00,28.8,26.5,29.95,NE,54,3.0,3.0,91,0.00,,,0.00,Wunderground v.1.15,2014-02-03 15:10:00,
2014-02-03 10:15:00,28.6,26.3,29.95,ENE,73,4.0,4.0,91,0.00,,,0.00,Wunderground v.1.15,2014-02-03 15:15:00,
2014-02-03 10:20:00,28.4,26.1,29.95,ENE,59,4.0,4.0,91,0.00,,,0.00,Wunderground v.1.15,2014-02-03 15:20:00,
2014-02-03 10:25:00,28.2,25.9,29.95,ENE,69,3.0,7.0,91,0.00,,,0.00,Wunderground v.1.15,2014-02-03 15:25:00,
2014-02-03 10:35:00,28.0,25.4,29.95,NE,39,4.0,4.0,90,0.00,,,0.00,Wunderground v.1.15,2014-02-03 15:35:00,
2014-02-03 10:40:00,27.8,25.2,29.95,NNE,31,4.0,4.0,90,0.00,,,0.00,Wunderground v.1.15,2014-02-03 15:40:00,
2014-02-03 10:45:00,27.8,25.2,29.95,East,91,3.0,4.0,90,0.00,,,0.00,Wunderground v.1.15,2014-02-03 15:45:00,
2014-02-03 10:55:00,27.8,25.5,29.95,ENE,71,3.0,3.0,91,0.00,,,0.00,Wunderground v.1.15,2014-02-03 15:55:00,
2014-02-03 11:00:00,27.8,25.5,29.94,North,360,2.0,2.0,91,0.00,,,0.00,Wunderground v.1.15,2014-02-03 16:00:00,
2014-02-03 11:05:00,27.8,25.5,29.94,NE,43,2.0,3.0,91,0.00,,,0.00,Wunderground v.1.15,2014-02-03 16:05:00,
2014-02-03 11:12:00,27.6,25.3,29.93,ENE,69,3.0,5.0,91,0.00,,,0.00,Wunderground v.1.15,2014-02-03 16:12:00,
2014-02-03 11:20:00,27.6,25.3,29.93,ENE,76,3.0,4.0,91,0.00,,,0.00,Wunderground v.1.15,2014-02-03 16:20:00,
2014-02-03 11:30:00,27.5,25.2,29.92,ENE,64,3.0,3.0,91,0.00,,,0.00,Wunderground v.1.15,2014-02-03 16:30:00,
2014-02-03 11:35:00,27.5,25.2,29.92,NE,44,3.0,3.0,91,0.00,,,0.00,Wunderground v.1.15,2014-02-03 16:35:00,
2014-02-03 11:45:00,27.5,25.2,29.91,NE,41,3.0,5.0,91,0.00,,,0.00,Wunderground v.1.15,2014-02-03 16:45:00,
2014-02-03 11:50:00,27.4,25.1,29.91,ENE,66,4.0,4.0,91,0.00,,,0.00,Wunderground v.1.15,2014-02-03 16:50:00,
2014-02-03 11:55:00,27.5,25.2,29.91,East,89,4.0,4.0,91,0.00,,,0.00,Wunderground v.1.15,2014-02-03 16:55:00,
2014-02-03 12:05:00,27.8,25.8,29.91,ENE,71,2.0,5.0,92,0.00,,,0.00,Wunderground v.1.15,2014-02-03 17:05:00,
2014-02-03 12:10:00,27.8,25.5,29.91,ENE,68,3.0,3.0,91,0.00,,,0.00,Wunderground v.1.15,2014-02-03 17:10:00,
2014-02-03 12:15:00,27.9,25.6,29.90,NE,36,3.0,5.0,91,0.00,,,0.00,Wunderground v.1.15,2014-02-03 17:15:00,
2014-02-03 12:25:00,27.8,25.5,29.90,ENE,63,2.0,3.0,91,0.00,,,0.00,Wunderground v.1.15,2014-02-03 17:25:00,
2014-02-03 12:30:00,27.7,25.4,29.90,NE,49,3.0,5.0,91,0.00,,,0.00,Wunderground v.1.15,2014-02-03 17:30:00,
2014-02-03 12:35:00,27.5,25.2,29.89,NNE,28,3.0,5.0,91,0.00,,,0.00,Wunderground v.1.15,2014-02-03 17:35:00,
2014-02-03 12:45:00,27.5,25.2,29.89,ENE,57,3.0,3.0,91,0.00,,,0.00,Wunderground v.1.15,2014-02-03 17:45:00,
2014-02-03 12:54:00,27.6,25.3,29.89,ENE,57,3.0,3.0,91,0.00,,,0.00,Wunderground v.1.15,2014-02-03 17:54:00,
2014-02-03 13:20:00,27.9,25.9,29.89,NE,44,2.0,3.0,92,0.00,,,0.00,Wunderground v.1.15,2014-02-03 18:20:00,
2014-02-03 13:30:00,27.8,25.8,29.88,NNE,30,2.0,2.0,92,0.00,,,0.00,Wunderground v.1.15,2014-02-03 18:30:00,
2014-02-03 13:36:00,27.6,25.6,29.88,NNE,32,3.0,3.0,92,0.00,,,0.00,Wunderground v.1.15,2014-02-03 18:36:00,
2014-02-03 13:41:00,27.6,25.6,29.88,NE,37,3.0,4.0,92,0.00,,,0.00,Wunderground v.1.15,2014-02-03 18:41:00,
2014-02-03 13:46:00,27.6,25.6,29.88,NE,47,1.0,5.0,92,0.00,,,0.00,Wunderground v.1.15,2014-02-03 18:46:00,
2014-02-03 13:51:00,27.6,25.8,29.87,East,81,5.0,5.0,93,0.00,,,0.00,Wunderground v.1.15,2014-02-03 18:51:00,
2014-02-03 13:56:00,27.5,25.5,29.87,ENE,69,2.0,7.0,92,0.00,,,0.00,Wunderground v.1.15,2014-02-03 18:56:00,
2014-02-03 14:01:00,27.6,25.6,29.87,NE,53,1.0,5.0,92,0.00,,,0.00,Wunderground v.1.15,2014-02-03 19:01:00,
2014-02-03 14:06:00,27.7,25.9,29.88,ENE,63,1.0,5.0,93,0.00,,,0.00,Wunderground v.1.15,2014-02-03 19:06:00,
2014-02-03 14:11:00,27.8,26.0,29.88,NE,42,4.0,5.0,93,0.00,,,0.00,Wunderground v.1.15,2014-02-03 19:11:00,
2014-02-03 14:16:00,27.8,26.0,29.88,ENE,58,2.0,5.0,93,0.00,,,0.00,Wunderground v.1.15,2014-02-03 19:16:00,
2014-02-03 14:21:00,27.8,26.0,29.88,NE,46,1.0,5.0,93,0.00,,,0.00,Wunderground v.1.15,2014-02-03 19:21:00,
2014-02-03 14:26:00,27.7,25.9,29.88,NE,35,4.0,6.0,93,0.00,,,0.00,Wunderground v.1.15,2014-02-03 19:26:00,
2014-02-03 14:31:00,27.6,25.6,29.88,NNE,19,3.0,5.0,92,0.00,,,0.00,Wunderground v.1.15,2014-02-03 19:31:00,
2014-02-03 14:36:00,27.6,25.6,29.88,NNE,14,3.0,5.0,92,0.00,,,0.00,Wunderground v.1.15,2014-02-03 19:36:00,
2014-02-03 14:41:00,27.5,25.5,29.88,NE,50,4.0,4.0,92,0.00,,,0.00,Wunderground v.1.15,2014-02-03 19:41:00,
2014-02-03 14:46:00,27.6,25.6,29.89,East,79,2.0,5.0,92,0.00,,,0.00,Wunderground v.1.15,2014-02-03 19:46:00,
2014-02-03 14:51:00,27.6,25.6,29.89,NNE,17,2.0,4.0,92,0.00,,,0.00,Wunderground v.1.15,2014-02-03 19:51:00,
2014-02-03 14:56:00,27.6,25.8,29.89,NE,47,2.0,4.0,93,0.00,,,0.00,Wunderground v.1.15,2014-02-03 19:56:00,
2014-02-03 15:01:00,27.6,25.8,29.88,ENE,58,2.0,4.0,93,0.00,,,0.00,Wunderground v.1.15,2014-02-03 20:01:00,
2014-02-03 15:06:00,27.6,25.8,29.89,NNE,26,6.0,7.0,93,0.00,,,0.00,Wunderground v.1.15,2014-02-03 20:06:00,
2014-02-03 15:11:00,27.6,25.6,29.89,NE,46,2.0,4.0,92,0.00,,,0.00,Wunderground v.1.15,2014-02-03 20:11:00,
2014-02-03 15:17:00,27.6,25.6,29.90,NE,34,3.0,4.0,92,0.00,,,0.00,Wunderground v.1.15,2014-02-03 20:17:00,
2014-02-03 15:22:00,27.6,25.8,29.89,NNE,26,2.0,4.0,93,0.00,,,0.00,Wunderground v.1.15,2014-02-03 20:22:00,
2014-02-03 15:27:00,27.6,25.8,29.90,NE,36,4.0,5.0,93,0.00,,,0.00,Wunderground v.1.15,2014-02-03 20:27:00,
2014-02-03 15:32:00,27.6,25.8,29.90,NE,38,2.0,3.0,93,0.00,,,0.00,Wunderground v.1.15,2014-02-03 20:32:00,
2014-02-03 15:37:00,27.7,25.9,29.90,NNE,31,5.0,5.0,93,0.00,,,0.00,Wunderground v.1.15,2014-02-03 20:37:00,
2014-02-03 15:42:00,27.7,25.9,29.90,NNE,33,2.0,3.0,93,0.00,,,0.00,Wunderground v.1.15,2014-02-03 20:42:00,
2014-02-03 15:47:00,27.6,25.8,29.90,NE,42,2.0,5.0,93,0.00,,,0.00,Wunderground v.1.15,2014-02-03 20:47:00,
2014-02-03 15:52:00,27.5,25.7,29.90,NE,37,2.0,9.0,93,0.00,,,0.00,Wunderground v.1.15,2014-02-03 20:52:00,
2014-02-03 15:57:00,27.5,25.7,29.90,ENE,76,4.0,9.0,93,0.00,,,0.00,Wunderground v.1.15,2014-02-03 20:57:00,
2014-02-03 16:02:00,27.5,25.7,29.90,ENE,65,3.0,7.0,93,0.00,,,0.00,Wunderground v.1.15,2014-02-03 21:02:00,
2014-02-03 16:07:00,27.6,25.8,29.90,ENE,61,3.0,7.0,93,0.00,,,0.00,Wunderground v.1.15,2014-02-03 21:07:00,
2014-02-03 16:12:00,27.5,25.7,29.90,NE,53,4.0,5.0,93,0.00,,,0.00,Wunderground v.1.15,2014-02-03 21:12:00,
2014-02-03 16:17:00,27.5,25.7,29.91,NE,46,2.0,5.0,93,0.00,,,0.00,Wunderground v.1.15,2014-02-03 21:17:00,
2014-02-03 16:22:00,27.5,25.7,29.90,ENE,70,2.0,3.0,93,0.00,,,0.00,Wunderground v.1.15,2014-02-03 21:22:00,
2014-02-03 16:27:00,27.5,25.7,29.90,NE,40,1.0,3.0,93,0.00,,,0.00,Wunderground v.1.15,2014-02-03 21:27:00,
2014-02-03 16:32:00,27.5,25.7,29.91,NNE,33,1.0,4.0,93,0.00,,,0.00,Wunderground v.1.15,2014-02-03 21:32:00,
2014-02-03 16:37:00,27.5,25.7,29.91,NNE,23,0.0,7.0,93,0.00,,,0.00,Wunderground v.1.15,2014-02-03 21:37:00,
2014-02-03 16:42:00,27.4,25.6,29.91,NNE,32,2.0,5.0,93,0.00,,,0.00,Wunderground v.1.15,2014-02-03 21:42:00,
2014-02-03 16:47:00,27.4,25.6,29.91,NE,36,2.0,5.0,93,0.00,,,0.00,Wunderground v.1.15,2014-02-03 21:47:00,
2014-02-03 16:52:00,27.4,25.6,29.91,NE,38,1.0,4.0,93,0.00,,,0.00,Wunderground v.1.15,2014-02-03 21:52:00,
2014-02-03 16:57:00,27.4,25.6,29.91,East,85,2.0,4.0,93,0.00,,,0.00,Wunderground v.1.15,2014-02-03 21:57:00,
2014-02-03 17:02:00,27.4,25.6,29.92,NE,36,1.0,2.0,93,0.00,,,0.00,Wunderground v.1.15,2014-02-03 22:02:00,
2014-02-03 17:07:00,27.4,25.6,29.92,NE,36,1.0,3.0,93,0.00,,,0.00,Wunderground v.1.15,2014-02-03 22:07:00,
2014-02-03 17:12:00,27.4,25.6,29.92,NNE,27,1.0,4.0,93,0.00,,,0.00,Wunderground v.1.15,2014-02-03 22:12:00,
2014-02-03 17:17:00,27.3,25.5,29.93,NNE,26,1.0,5.0,93,0.00,,,0.00,Wunderground v.1.15,2014-02-03 22:17:00,
2014-02-03 17:22:00,27.3,25.5,29.92,NE,46,2.0,3.0,93,0.00,,,0.00,Wunderground v.1.15,2014-02-03 22:22:00,
2014-02-03 17:27:00,27.2,25.4,29.92,NE,51,2.0,4.0,93,0.00,,,0.00,Wunderground v.1.15,2014-02-03 22:27:00,
2014-02-03 17:32:00,27.2,25.4,29.93,NNE,30,3.0,4.0,93,0.00,,,0.00,Wunderground v.1.15,2014-02-03 22:32:00,
2014-02-03 17:37:00,27.2,25.4,29.93,ENE,70,1.0,4.0,93,0.00,,,0.00,Wunderground v.1.15,2014-02-03 22:37:00,
2014-02-03 17:42:00,27.2,25.4,29.93,NE,53,3.0,6.0,93,0.00,,,0.00,Wunderground v.1.15,2014-02-03 22:42:00,
2014-02-03 17:47:00,27.0,25.2,29.93,ENE,66,3.0,6.0,93,0.00,,,0.00,Wunderground v.1.15,2014-02-03 22:47:00,
2014-02-03 17:52:00,26.9,25.1,29.93,NNE,31,2.0,5.0,93,0.00,,,0.00,Wunderground v.1.15,2014-02-03 22:52:00,
2014-02-03 17:57:00,26.9,25.1,29.93,ENE,59,3.0,5.0,93,0.00,,,0.00,Wunderground v.1.15,2014-02-03 22:57:00,
2014-02-03 18:02:00,26.8,25.0,29.93,ENE,63,1.0,4.0,93,0.00,,,0.00,Wunderground v.1.15,2014-02-03 23:02:00,
2014-02-03 18:07:00,26.9,25.1,29.94,ENE,70,0.0,7.0,93,0.00,,,0.00,Wunderground v.1.15,2014-02-03 23:07:00,
2014-02-03 18:12:00,26.8,25.0,29.94,NE,44,1.0,2.0,93,0.00,,,0.00,Wunderground v.1.15,2014-02-03 23:12:00,
2014-02-03 18:17:00,26.8,25.0,29.94,ENE,61,2.0,5.0,93,0.00,,,0.00,Wunderground v.1.15,2014-02-03 23:17:00,
2014-02-03 18:22:00,26.8,24.8,29.94,NE,54,2.0,3.0,92,0.00,,,0.00,Wunderground v.1.15,2014-02-03 23:22:00,
2014-02-03 18:27:00,26.7,24.7,29.94,NNE,30,3.0,3.0,92,0.00,,,0.00,Wunderground v.1.15,2014-02-03 23:27:00,
2014-02-03 18:32:00,26.6,24.6,29.94,NE,41,1.0,2.0,92,0.00,,,0.00,Wunderground v.1.15,2014-02-03 23:32:00,
2014-02-03 18:37:00,26.5,24.5,29.94,ENE,65,1.0,2.0,92,0.00,,,0.00,Wunderground v.1.15,2014-02-03 23:37:00,
2014-02-03 18:42:00,26.5,24.8,29.95,ENE,65,0.0,2.0,93,0.00,,,0.00,Wunderground v.1.15,2014-02-03 23:42:00,
2014-02-03 18:47:00,26.6,24.8,29.95,NE,36,1.0,3.0,93,0.00,,,0.00,Wunderground v.1.15,2014-02-03 23:47:00,
2014-02-03 18:52:00,26.6,24.6,29.96,NNE,27,2.0,2.0,92,0.00,,,0.00,Wunderground v.1.15,2014-02-03 23:52:00,
2014-02-03 18:57:00,26.6,24.6,29.96,NNE,27,0.0,3.0,92,0.00,,,0.00,Wunderground v.1.15,2014-02-03 23:57:00,
2014-02-03 19:02:00,26.5,24.5,29.96,NNE,27,1.0,2.0,92,0.00,,,0.00,Wunderground v.1.15,2014-02-04 00:02:00,
2014-02-03 19:07:00,26.4,24.4,29.96,NNE,30,0.0,2.0,92,0.00,,,0.00,Wunderground v.1.15,2014-02-04 00:07:00,
2014-02-03 19:12:00,26.3,24.3,29.96,NNE,28,2.0,2.0,92,0.00,,,0.00,Wunderground v.1.15,2014-02-04 00:12:00,
2014-02-03 19:17:00,26.3,24.3,29.96,NNE,28,0.0,2.0,92,0.00,,,0.00,Wunderground v.1.15,2014-02-04 00:17:00,
2014-02-03 19:22:00,26.3,24.3,29.96,NNE,28,0.0,1.0,92,0.00,,,0.00,Wunderground v.1.15,2014-02-04 00:22:00,
2014-02-03 19:27:00,26.3,24.3,29.96,NNE,28,3.0,3.0,92,0.00,,,0.00,Wunderground v.1.15,2014-02-04 00:27:00,
2014-02-03 19:32:00,26.5,24.8,29.96,NNE,24,1.0,4.0,93,0.00,,,0.00,Wunderground v.1.15,2014-02-04 00:32:00,
2014-02-03 19:37:00,26.5,24.5,29.97,ENE,68,1.0,4.0,92,0.00,,,0.00,Wunderground v.1.15,2014-02-04 00:37:00,
2014-02-03 19:43:00,26.4,24.4,29.97,ENE,62,0.0,2.0,92,0.00,,,0.00,Wunderground v.1.15,2014-02-04 00:43:00,
2014-02-03 19:48:00,26.3,24.3,29.97,ENE,62,0.0,2.0,92,0.00,,,0.00,Wunderground v.1.15,2014-02-04 00:48:00,
2014-02-03 19:53:00,26.3,24.3,29.98,ENE,62,0.0,0.0,92,0.00,,,0.00,Wunderground v.1.15,2014-02-04 00:53:00,
2014-02-03 19:58:00,26.4,24.4,29.98,ENE,62,0.0,0.0,92,0.00,,,0.00,Wunderground v.1.15,2014-02-04 00:58:00,
2014-02-03 20:03:00,26.4,24.4,29.97,ENE,62,0.0,0.0,92,0.00,,,0.00,Wunderground v.1.15,2014-02-04 01:03:00,
2014-02-03 20:08:00,26.5,24.8,29.98,ENE,62,0.0,0.0,93,0.00,,,0.00,Wunderground v.1.15,2014-02-04 01:08:00,
2014-02-03 20:13:00,26.5,24.8,29.98,ENE,62,0.0,0.0,93,0.00,,,0.00,Wunderground v.1.15,2014-02-04 01:13:00,
2014-02-03 20:18:00,26.6,24.8,29.99,ENE,62,0.0,0.0,93,0.00,,,0.00,Wunderground v.1.15,2014-02-04 01:18:00,
2014-02-03 20:23:00,26.5,24.8,29.98,ENE,62,0.0,0.0,93,0.00,,,0.00,Wunderground v.1.15,2014-02-04 01:23:00,
2014-02-03 20:28:00,26.5,24.5,29.99,ENE,62,0.0,0.0,92,0.00,,,0.00,Wunderground v.1.15,2014-02-04 01:28:00,
2014-02-03 20:33:00,26.5,24.5,30.00,ENE,62,0.0,0.0,92,0.00,,,0.00,Wunderground v.1.15,2014-02-04 01:33:00,
2014-02-03 20:38:00,26.5,24.8,30.00,ENE,62,0.0,0.0,93,0.00,,,0.00,Wunderground v.1.15,2014-02-04 01:38:00,
2014-02-03 20:43:00,26.5,24.8,30.00,ENE,62,0.0,0.0,93,0.00,,,0.00,Wunderground v.1.15,2014-02-04 01:43:00,
2014-02-03 20:48:00,26.5,24.5,30.00,ENE,62,0.0,1.0,92,0.00,,,0.00,Wunderground v.1.15,2014-02-04 01:48:00,
2014-02-03 20:53:00,26.4,24.4,30.00,ENE,62,0.0,1.0,92,0.00,,,0.00,Wunderground v.1.15,2014-02-04 01:53:00,
2014-02-03 20:58:00,26.2,24.5,30.00,ENE,62,0.0,1.0,93,0.00,,,0.00,Wunderground v.1.15,2014-02-04 01:58:00,
2014-02-03 21:03:00,26.0,24.3,30.00,ENE,62,0.0,0.0,93,0.00,,,0.00,Wunderground v.1.15,2014-02-04 02:03:00,
2014-02-03 21:08:00,25.6,23.9,30.00,ENE,62,0.0,0.0,93,0.00,,,0.00,Wunderground v.1.15,2014-02-04 02:08:00,
2014-02-03 21:13:00,24.9,22.9,30.00,ENE,62,0.0,0.0,92,0.00,,,0.00,Wunderground v.1.15,2014-02-04 02:13:00,
2014-02-03 21:19:00,24.4,22.7,30.00,ENE,62,0.0,0.0,93,0.00,,,0.00,Wunderground v.1.15,2014-02-04 02:19:00,
2014-02-03 21:24:00,23.9,22.2,30.00,ENE,62,0.0,0.0,93,0.00,,,0.00,Wunderground v.1.15,2014-02-04 02:24:00,
2014-02-03 21:29:00,23.8,22.1,30.00,ENE,62,0.0,0.0,93,0.00,,,0.00,Wunderground v.1.15,2014-02-04 02:29:00,
2014-02-03 21:34:00,23.5,21.8,30.00,ENE,62,0.0,0.0,93,0.00,,,0.00,Wunderground v.1.15,2014-02-04 02:34:00,
2014-02-03 21:36:00,23.2,21.5,30.01,N/A,-737280,0.0,-999.0,93,0.00,,,0.00,Wunderground v.1.15,2014-02-04 02:36:00,
2014-02-03 21:41:00,23.2,21.5,30.01,N/A,-737280,0.0,-999.0,93,0.00,,,0.00,Wunderground v.1.15,2014-02-04 02:41:00,
2014-02-03 21:46:00,23.1,21.6,30.01,N/A,-737280,0.0,-999.0,94,0.00,,,0.00,Wunderground v.1.15,2014-02-04 02:46:00,
2014-02-03 21:51:00,23.1,21.6,30.01,N/A,-737280,0.0,-999.0,94,0.00,,,0.00,Wunderground v.1.15,2014-02-04 02:51:00,
2014-02-03 21:56:00,22.4,20.7,30.01,N/A,-737280,0.0,-999.0,93,0.00,,,0.00,Wunderground v.1.15,2014-02-04 02:56:00,
2014-02-03 22:01:00,22.4,20.7,30.01,N/A,-737280,0.0,-999.0,93,0.00,,,0.00,Wunderground v.1.15,2014-02-04 03:01:00,
2014-02-03 22:06:00,22.0,20.5,30.01,N/A,-737280,0.0,-999.0,94,0.00,,,0.00,Wunderground v.1.15,2014-02-04 03:06:00,
2014-02-03 22:11:00,22.0,20.5,30.01,N/A,-737280,0.0,-999.0,94,0.00,,,0.00,Wunderground v.1.15,2014-02-04 03:11:00,
2014-02-03 22:16:00,22.1,20.6,30.02,N/A,-737280,0.0,-999.0,94,0.00,,,0.00,Wunderground v.1.15,2014-02-04 03:16:00,
2014-02-03 22:21:00,22.1,20.6,30.02,N/A,-737280,0.0,-999.0,94,0.00,,,0.00,Wunderground v.1.15,2014-02-04 03:21:00,
2014-02-03 22:26:00,22.1,20.6,30.03,N/A,-737280,0.0,-999.0,94,0.00,,,0.00,Wunderground v.1.15,2014-02-04 03:26:00,
2014-02-03 22:31:00,22.1,20.6,30.03,N/A,-737280,0.0,-999.0,94,0.00,,,0.00,Wunderground v.1.15,2014-02-04 03:31:00,
2014-02-03 22:36:00,22.0,20.5,30.03,N/A,-737280,0.0,-999.0,94,0.00,,,0.00,Wunderground v.1.15,2014-02-04 03:36:00,
2014-02-03 22:41:00,22.0,20.5,30.03,N/A,-737280,0.0,-999.0,94,0.00,,,0.00,Wunderground v.1.15,2014-02-04 03:41:00,
2014-02-03 22:46:00,22.4,20.9,30.04,N/A,-737280,0.0,-999.0,94,0.00,,,0.00,Wunderground v.1.15,2014-02-04 03:46:00,
2014-02-03 22:51:00,22.4,20.9,30.04,N/A,-737280,0.0,-999.0,94,0.00,,,0.00,Wunderground v.1.15,2014-02-04 03:51:00,
2014-02-03 22:56:00,22.0,20.5,30.05,N/A,-737280,0.0,-999.0,94,0.00,,,0.00,Wunderground v.1.15,2014-02-04 03:56:00,
2014-02-03 23:01:00,22.0,20.5,30.05,N/A,-737280,0.0,-999.0,94,0.00,,,0.00,Wunderground v.1.15,2014-02-04 04:01:00,
2014-02-03 23:06:00,21.9,20.4,30.05,N/A,-737280,0.0,-999.0,94,0.00,,,0.00,Wunderground v.1.15,2014-02-04 04:06:00,
2014-02-03 23:11:00,21.9,20.4,30.05,N/A,-737280,0.0,-999.0,94,0.00,,,0.00,Wunderground v.1.15,2014-02-04 04:11:00,
2014-02-03 23:16:00,21.3,19.8,30.04,N/A,-737280,0.0,-999.0,94,0.00,,,0.00,Wunderground v.1.15,2014-02-04 04:16:00,
2014-02-03 23:21:00,21.3,19.8,30.04,N/A,-737280,0.0,-999.0,94,0.00,,,0.00,Wunderground v.1.15,2014-02-04 04:21:00,
2014-02-03 23:26:00,20.9,19.2,30.04,N/A,-737280,0.0,-999.0,93,0.00,,,0.00,Wunderground v.1.15,2014-02-04 04:26:00,
2014-02-03 23:31:00,20.9,19.2,30.04,N/A,-737280,0.0,-999.0,93,0.00,,,0.00,Wunderground v.1.15,2014-02-04 04:31:00,
2014-02-03 23:36:00,21.3,19.8,30.04,N/A,-737280,0.0,-999.0,94,0.00,,,0.00,Wunderground v.1.15,2014-02-04 04:36:00,
2014-02-03 23:41:00,21.3,19.8,30.04,N/A,-737280,0.0,-999.0,94,0.00,,,0.00,Wunderground v.1.15,2014-02-04 04:41:00,
2014-02-03 23:46:00,21.1,19.6,30.04,N/A,-737280,0.0,-999.0,94,0.00,,,0.00,Wunderground v.1.15,2014-02-04 04:46:00,
2014-02-03 23:51:00,21.1,19.6,30.04,N/A,-737280,0.0,-999.0,94,0.00,,,0.00,Wunderground v.1.15,2014-02-04 04:51:00,
2014-02-03 23:56:00,20.6,18.9,30.04,N/A,-737280,0.0,-999.0,93,0.00,,,0.00,Wunderground v.1.15,2014-02-04 04:56:00,